CZ-3C DEB, 42481

Orbit data source: Space-Track

CZ-3C DEB, 42481 is space debris in HEO originally from a launch on Fri, 24 Feb 2012 UTC launched from the Xichang Space Center, China (XSC). Debris objects in space refer to the collection of defunct objects orbiting the Earth. Examples of debris include non-operational satellites, rocket bodies, and fragments generated from explosions, collisions, or faulty payload assembly.

Loading next visibility...
Identifier
42481, 2012-008AR
Orbit
HEO
Country
Flag of CNCN / PRC
Related business
Manufacturer
CALT
Mission
Spacecraft
Bus & Motor
Unknown
Mass
Unknown
Launch date (UTC)
2012-02-24 (14 years ago)
Launch vehicle
Unknown
Launch site
Xichang Space Center, China (XSC)
Object type
Payload
Rocket body
Debris
Shape & HBR
Unknown shape, 1.1 m
Radar Cross Section
Medium (>0.1 m² and <1 m²)

Expand to show TLE details & history
Last TLE update: 10 months ago

TLE from 10 months ago
0 CZ-3C DEB
1 42481U 12008AR  25130.90344705 -.00000254  00000-0  00000-0 0  9995
2 42481  23.1944 359.2535 6928819 253.8559  24.8256  2.24584998 80204
Epoch: 2025-05-10T21:40Z
TLE epoch observation values (Epoch: 2025-05-10T21:40:57.825Z)
Latitude
-0.00002°
Longitude
165.06862°
Altitude
9,483.696 km
Speed
5.837 km/s
True Right ascension
23h 56m 59s
True Declination
0° 00' 00"
Sunlit
Object was in daylight at epoch
Visualization orbit readout
Latitude
Unknown
Longitude
Unknown
Altitude
Unknown
Speed
Unknown
Apparent Right ascension
Unknown
Apparent Declination
Unknown
Sunlit
N/A
Visualization observer readout
Local Sidereal Time
20:05:04
Azimuth
Unknown
Elevation
Unknown
Doppler factor
Unknown
Orbital elements
Apogee altitude
35,325.392 km
Perigee altitude
1,187.606 km
Semi-major axis
24,634.636 km
Eccentricity
0.69288
Inclination
23.1944°
RAAN
359.2535°
Arg. of periapsis
253.8559°
True anomaly
105.79825°
Mean anomaly
24.8256°
Eccentric anomaly
58.7733°
Mean motion
0.56134 °/min
Orbital period
641.33 mins
BSTAR
0
Loading maneuver chart data...
Computing Atmospheric mass density...
Loading historical data...
Loading historical data...
Loading historical data...
Loading historical data...
Loading historical data...
Loading historical data...
Loading historical data...

Documentation

Showing up to 5 results
|